Flag for Norway Weather past 2 weeks in Stavern, Norway

Now
72 °F

Passing clouds.


Feels Like: 77 °F
Forecast: 61 / 74 °F
Wind: 9 mph from West

Location: Torp

Current Time: Jul 30, 2014 at 9:22:33 PM

Latest Report: Jul 30, 2014 at 8:50 PM


Visibility: N/A

Pressure: 29.62 "Hg

Humidity: 44%

Dew point: 48 °F

Location of StavernLocation

Historic Weather in Stavern — Graph

°F

Stavern temperature yesterday

Maximum temperature yesterday: 73 °F (at 10:20 AM)
Minimum temperature yesterday: 61 °F (at 1:20 AM)
Average temperature yesterday: 68 °F

Past Weeks' High & Low Weather Summary

 TemperatureHumidityPressure
High90 °F (Jul 23, 4:20 PM)100% (Jul 17, 1:50 AM)30.30 "Hg (Jul 17, 1:50 AM)
Low52 °F (Jul 18, 4:50 AM)31% (Jul 23, 4:50 PM)29.62 "Hg (Jul 30, 7:50 AM)
Average70 °F67%30.04 "Hg
* Reported Jul 15 7:20 PM — Jul 30 7:50 PM, Stavern, Weather by CustomWeather, © 2014

Note: Actual official high and low records may vary slightly from our data, if they occured in-between our weather recording intervals... More about our weather records

Advertising

Stavern weather history for previous 24 hours

 ConditionsComfort  
Time TempWeatherWind HumidityBarometerVisibility
7:50 PM
Jul 30
73 °FPassing clouds.9 mph44%29.62 "HgN/A
7:20 PM72 °FPassing clouds.13 mph57%29.62 "HgN/A
6:50 PM73 °FPassing clouds.16 mph53%29.62 "HgN/A
6:20 PM73 °FPassing clouds.17 mph50%29.62 "HgN/A
5:50 PM72 °FPassing clouds.21 mph50%29.62 "HgN/A
5:20 PM73 °FPassing clouds.21 mph50%29.62 "HgN/A
4:50 PM73 °FPassing clouds.20 mph53%29.65 "HgN/A
4:20 PM73 °FPassing clouds.23 mph50%29.65 "HgN/A
3:50 PM73 °FPassing clouds.23 mph50%29.65 "HgN/A
3:20 PM73 °FPassing clouds.23 mph50%29.65 "HgN/A
2:50 PM73 °FPassing clouds.20 mph61%29.65 "HgN/A
2:20 PM73 °FSunny.22 mph53%29.65 "Hg10 mi
1:50 PM75 °FPassing clouds.20 mph54%29.65 "HgN/A
1:20 PM72 °FPassing clouds.18 mph65%29.65 "HgN/A
12:50 PM73 °FPassing clouds.17 mph57%29.65 "HgN/A
12:20 PM73 °FPassing clouds.17 mph53%29.65 "HgN/A
11:50 AM73 °FPassing clouds.14 mph53%29.65 "HgN/A
11:20 AM73 °FPassing clouds.10 mph50%29.65 "HgN/A
10:50 AM72 °FPassing clouds.9 mph61%29.65 "HgN/A
10:20 AM72 °FPassing clouds.9 mph65%29.65 "HgN/A
9:50 AM72 °FPassing clouds.8 mph61%29.65 "HgN/A
9:20 AM68 °FScattered clouds.8 mph78%29.65 "HgN/A
8:50 AM68 °FScattered clouds.8 mph83%29.65 "HgN/A
8:20 AM66 °FPartly sunny.6 mph88%29.65 "HgN/A
7:50 AM64 °FScattered clouds.5 mph94%29.62 "HgN/A
7:20 AM61 °FPassing clouds.2 mph100%29.65 "Hg6 mi
6:50 AM59 °FPassing clouds.No wind100%29.65 "HgN/A
6:20 AM61 °FClear.1 mph94%29.65 "HgN/A
5:50 AM61 °FLight fog.No wind94%29.65 "HgN/A
5:20 AM59 °FLight fog.3 mph94%29.65 "Hg0 mi
4:50 AM63 °FFog.No wind94%29.65 "Hg1 mi
4:20 AM63 °FMild.No wind100%29.65 "HgN/A
3:50 AM63 °FMild.5 mph100%29.65 "HgN/A
3:20 AM63 °FMild.6 mph100%29.65 "HgN/A
2:50 AM64 °FMild.3 mph94%29.68 "HgN/A
2:20 AM66 °FPassing clouds.3 mph88%29.68 "HgN/A
1:50 AM66 °FOvercast.5 mph88%29.68 "HgN/A
1:20 AM66 °FOvercast.6 mph88%29.71 "HgN/A
12:50 AM66 °FPassing clouds.7 mph88%29.71 "HgN/A
12:20 AM66 °FPartly cloudy.8 mph88%29.71 "HgN/A
11:50 PM
Jul 29
66 °FPartly cloudy.8 mph88%29.71 "HgN/A
11:20 PM64 °FPassing clouds.7 mph88%29.74 "HgN/A
10:50 PM64 °FScattered clouds.6 mph88%29.74 "HgN/A
10:20 PM64 °FPassing clouds.7 mph88%29.74 "HgN/A
9:50 PM66 °FPassing clouds.8 mph83%29.74 "HgN/A
9:20 PM68 °FPassing clouds.8 mph78%29.74 "HgN/A
Weather by CustomWeather, © 2014

See weather overviewHow to use our weather pages